This demonstration page uses our WeatherBlox Daily Observations layout. Learn more.

Left ArrowRight Arrow

34.74481, -87.66753

Hourly Observations for May 25, 2022

Temp ( °F °C ) Dew Point ( °F °C ) Humidity (%) Winds ( mph kmh ) Pressure ( in mb ) Visibility ( mi km ) Precip ( " mm )
12:53 am 00:53 Cloudy 68 20 66 18.9 93 93 SE 5 7 29.98 1015 10 16 0.00 0.00
1:01 am 01:01 Cloudy with Rain 68 20 67 19.4 96 96 VRB 3 6 29.98 1015 3 5 0.06 1.52
1:12 am 01:12 Mostly Cloudy with Light Rain 68 20 66 18.9 93 93 ESE 7 11 29.97 1015 10 16 0.06 1.52
1:20 am 01:20 Partly Cloudy 68 20 66 18.9 93 93 ESE 5 7 29.97 1015 10 16 0.06 1.52
1:53 am 01:53 Mostly Clear 68 20 66 18.9 93 93 Calm 29.96 1015 10 16 0.06 1.52
2:06 am 02:06 Mostly Clear 68 20 66 18.9 93 93 Calm 29.96 1014 10 16 0.00 0.00
2:53 am 02:53 Clear 68 20 66 18.9 93 93 ESE 7 11 29.95 1014 10 16 0.00 0.00
3:53 am 03:53 Mostly Clear 69 20.6 67 19.4 93 93 SE 6 9 29.96 1015 10 16 0.00 0.00
4:53 am 04:53 Partly Cloudy 69 20.6 66 18.9 90 90 ESE 7 11 29.95 1014 10 16 0.00 0.00
5:03 am 05:03 Mostly Cloudy 69 20.6 67 19.4 93 93 SE 5 7 29.96 1014 10 16 0.00 0.00
5:53 am 05:53 Cloudy 69 20.6 67 19.4 93 93 ESE 6 9 29.96 1015 10 16 0.00 0.00
6:20 am 06:20 Cloudy 69 20.6 67 19.4 93 93 E 5 7 29.99 1015 10 16 0.00 0.00
6:53 am 06:53 Cloudy 69 20.6 67 19.4 93 93 ESE 6 9 29.98 1015 10 16 0.00 0.00
7:23 am 07:23 Cloudy 70 21.1 68 20 93 93 SE 8 13 29.98 1015 10 16 0.00 0.00
7:39 am 07:39 Cloudy 71 21.7 67 19.4 87 87 ESE 9 15 29.97 1015 10 16 0.00 0.00
7:53 am 07:53 Cloudy 71 21.7 68 20 90 90 SE 10 17 29.97 1015 10 16 0.00 0.00
8:53 am 08:53 Cloudy 72 22.2 69 20.6 91 91 SE 14 22 29.95 1014 10 16 0.00 0.00
9:27 am 09:27 Cloudy 73 22.8 68 20 84 84 SSE 16 26 29.95 1014 10 16 0.00 0.00
9:44 am 09:44 Cloudy 73 22.8 68 20 84 84 SSE 12 19 29.94 1014 10 16 0.00 0.00
9:53 am 09:53 Cloudy 73 22.8 68 20 84 84 SE 15 24 29.95 1014 10 16 0.00 0.00
10:34 am 10:34 Cloudy with Light Rain 73 22.8 69 20.6 87 87 SSE 9 15 29.95 1014 10 16 0.01 0.25
10:53 am 10:53 Mostly Cloudy 76 24.4 69 20.6 79 79 SSE 12 19 29.94 1014 10 16 0.01 0.25
11:14 am 11:14 Mostly Cloudy 76 24.4 68 20 77 77 S 13 20 29.95 1014 10 16 0.00 0.00
11:53 am 11:53 Cloudy 77 25 68 20 74 74 S 14 22 29.96 1015 10 16 0.00 0.00
12:53 pm 12:53 Mostly Cloudy 78 25.6 68 20 71 71 SSE 15 24 29.95 1014 10 16 0.00 0.00
1:53 pm 13:53 Mostly Cloudy 80 26.7 68 20 67 67 S 15 24 29.92 1013 10 16 0.00 0.00
2:53 pm 14:53 Cloudy 79 26.1 68 20 69 69 SSE 16 26 29.91 1013 10 16 0.00 0.00
3:53 pm 15:53 Mostly Cloudy 81 27.2 69 20.6 67 67 SSE 14 22 29.89 1012 10 16 0.00 0.00
4:23 pm 16:23 Cloudy with Nearby Thunderstorms 78 25.6 67 19.4 69 69 S 13 20 29.94 1014 10 16 0.00 0.00
4:29 pm 16:29 Cloudy with Nearby Thunderstorms 73 22.8 67 19.4 81 81 W 32 52 29.96 1015 2 2 0.11 2.79
4:33 pm 16:33 Cloudy with Strong Thunderstorms 68 20 65 18.3 90 90 SSW 15 24 29.96 1014 1 1 0.29 7.37
4:41 pm 16:41 Cloudy with Strong Thunderstorms 68 20 65 18.3 90 90 S 10 17 29.95 1014 1 2 0.35 8.89
4:53 pm 16:53 Cloudy with Strong Thunderstorms 68 20 65 18.3 90 90 SW 7 11 29.95 1014 2 3 0.43 10.92
5:03 pm 17:03 Cloudy with Strong Thunderstorms 68 20 65 18.3 90 90 SSW 10 17 29.96 1014 3 4 0.06 1.52
5:13 pm 17:13 Cloudy with Strong Thunderstorms 67 19.4 65 18.3 93 93 SSW 8 13 29.95 1014 1 2 0.17 4.32
5:23 pm 17:23 Mostly Cloudy with Nearby Thunderstorms 67 19.4 65 18.3 93 93 S 13 20 29.95 1014 2 3 0.23 5.84
5:33 pm 17:33 Cloudy with Nearby Thunderstorms 67 19.4 65 18.3 93 93 S 10 17 29.96 1015 5 8 0.24 6.10
5:46 pm 17:46 Cloudy with Rain 67 19.4 65 18.3 93 93 VRB 5 7 29.94 1014 4 6 0.27 6.86
5:53 pm 17:53 Cloudy with Rain 68 20 65 18.3 90 90 SSE 6 9 29.93 1014 3 5 0.29 7.37
6:53 pm 18:53 Mostly Cloudy 68 20 66 18.9 93 93 SE 8 13 29.93 1014 10 16 0.07 1.78
7:53 pm 19:53 Mostly Sunny 68 20 66 18.9 93 93 ESE 6 9 29.93 1013 10 16 0.00 0.00
8:53 pm 20:53 Mostly Cloudy 70 21.1 68 20 93 93 SE 8 13 29.93 1014 10 16 0.01 0.25
9:53 pm 21:53 Partly Cloudy with Light Rain 71 21.7 69 20.6 94 94 SE 8 13 29.92 1013 10 16 0.01 0.25
10:12 pm 22:12 Mostly Cloudy 71 21.7 69 20.6 94 94 SSE 6 9 29.93 1014 10 16 0.00 0.00
10:28 pm 22:28 Mostly Cloudy 71 21.7 69 20.6 94 94 SSE 7 11 29.93 1014 10 16 0.00 0.00
10:38 pm 22:38 Mostly Cloudy 71 21.7 68 20 90 90 SSE 9 15 29.93 1014 10 16 0.00 0.00
10:53 pm 22:53 Mostly Cloudy 71 21.7 68 20 90 90 SSE 7 11 29.93 1014 10 16 0.00 0.00
11:33 pm 23:33 Mostly Cloudy 71 21.7 68 20 90 90 SSE 10 17 29.92 1013 10 16 0.00 0.00
11:44 pm 23:44 Mostly Cloudy 71 21.7 68 20 90 90 SSE 13 20 29.92 1013 10 16 0.00 0.00
11:53 pm 23:53 Mostly Cloudy 71 21.7 68 20 90 90 SSE 14 22 29.91 1013 10 16 0.00 0.00

Powered by AerisWeather